Hauptseite
METAR-TAF:

METAR-TAF

Flughäfen :

Indiana County Airport (Jimmy Stewart Field)

Indiana, Pennsylvania, Vereinigte Staaten

Breite: 40-38N, Länge: 079-06W, Höhe: 429 m

Beobachtung

Neuester Wetterbericht von vor 30 Minuten, um 05:35 UTC
Windstille
Temperatur 19°C
Luftfeuchtigkeit 94%
Luftdruck 1013 hPa
Sichtweite: 16.1 km
Geschlossene Wolkendecke in der Höhe von 5000 ft

METAR: KIDI 040535Z AUTO 00000KT 10SM OVC050 19/18 A2990 RMK A01

Zeit: 02:05 (06:05 UTC)


TAF: fehlend

Wetterbeobachtungen und Prognosen von mehr als 4000 Flughäfen (METAR und TAF Bericht).

Die verfügbaren Stationen werden durch gelbe und rote Markierungen auf der Karte dargestellt.

Führen Sie die Maus auf sie, um den Namen der Station zu sehen.

Darauf klicken, um die Beobachtung von Wetterbeobachtungen und Prognosen zu sehen.

Um die Karte zu ändern : klicken Sie auf den grünen Tasten mit einem schwarzen Kreuz Zum Vergrößern, auf den grünen Button mit einem Gedankenstrich zu verkleinern, oder auf die grünen Pfeile für benachbarte Karten.


METAR-TAF: